SBI5250 UHPP-UNNT

Flight info

Callsign SBI5250
Flight time N/A
Altitude 36000
Route BAKEN A812 OTLIM G119 BANOT G370 UTS W289 GISUN W39 ERBOG W105 LANAP W339 BARIK W261 OKRIM A309 KESED B926 NATIR
Aircraft A320/M-SDE2E3FGHIRWXY/LB1

Departure

Time 2026-05-08 10:48
Airport Yelizovo Airport (UHPP)

Arrival

Time N/A
Airport Novosibirsk Tolmachevo Airport (UNNT)
Time Latitude Longitude Altitude Speed Heading
2026-05-08 10:20 53.18298 158.43316 123 ft 0 kts 198°
2026-05-08 10:37 53.18321 158.43329 120 ft 4 kts 198°
2026-05-08 10:37 53.18342 158.43340 119 ft 4 kts 178°
2026-05-08 10:37 53.18363 158.43324 121 ft 4 kts 119°
2026-05-08 10:37 53.18371 158.43292 118 ft 0 kts 104°
2026-05-08 10:40 53.18371 158.43294 118 ft 2 kts 104°
2026-05-08 10:40 53.18366 158.43331 119 ft 6 kts 103°
2026-05-08 10:40 53.18354 158.43390 123 ft 5 kts 115°
2026-05-08 10:41 53.18334 158.43446 119 ft 10 kts 121°
2026-05-08 10:41 53.18268 158.43549 122 ft 11 kts 149°
2026-05-08 10:41 53.18235 158.43628 119 ft 8 kts 81°
2026-05-08 10:41 53.18254 158.43714 121 ft 12 kts 68°
2026-05-08 10:42 53.18292 158.43872 121 ft 14 kts 68°
2026-05-08 10:42 53.18315 158.44022 125 ft 14 kts 93°
2026-05-08 10:42 53.18241 158.44159 122 ft 21 kts 155°
2026-05-08 10:42 53.18095 158.44261 124 ft 23 kts 157°
2026-05-08 10:43 53.17927 158.44377 122 ft 30 kts 158°
2026-05-08 10:43 53.17730 158.44511 122 ft 29 kts 157°
2026-05-08 10:43 53.17545 158.44641 127 ft 29 kts 157°
2026-05-08 10:43 53.17361 158.44768 128 ft 29 kts 159°
2026-05-08 10:44 53.17170 158.44898 124 ft 30 kts 156°
2026-05-08 10:44 53.16643 158.45276 123 ft 30 kts 157°
2026-05-08 10:45 53.16445 158.45409 121 ft 31 kts 159°
2026-05-08 10:45 53.16241 158.45540 122 ft 31 kts 158°
2026-05-08 10:45 53.16049 158.45673 126 ft 26 kts 157°
2026-05-08 10:45 53.15903 158.45770 127 ft 22 kts 156°
2026-05-08 10:46 53.15762 158.45870 128 ft 21 kts 156°
2026-05-08 10:46 53.15637 158.45957 122 ft 18 kts 162°
2026-05-08 10:46 53.15553 158.45953 124 ft 9 kts 183°
2026-05-08 10:46 53.15536 158.46009 124 ft 5 kts 63°
2026-05-08 10:47 53.15577 158.46005 124 ft 8 kts 330°
2026-05-08 10:47 53.15594 158.45993 124 ft 0 kts 338°
2026-05-08 10:47 53.15596 158.45992 123 ft 2 kts 338°
2026-05-08 10:47 53.15797 158.45853 125 ft 70 kts 337°
2026-05-08 10:48 53.16486 158.45377 123 ft 141 kts 337°
2026-05-08 10:48 53.17553 158.44635 278 ft 184 kts 338°
2026-05-08 10:48 53.18743 158.43783 1111 ft 184 kts 335°
2026-05-08 10:48 53.19935 158.42932 1833 ft 190 kts 335°
2026-05-08 10:49 53.21178 158.42053 2455 ft 196 kts 334°
2026-05-08 10:49 53.22461 158.41154 3029 ft 205 kts 334°
2026-05-08 10:49 53.23809 158.40215 3628 ft 214 kts 334°
2026-05-08 10:49 53.25203 158.39251 4312 ft 220 kts 334°
2026-05-08 10:50 53.26694 158.38207 4643 ft 243 kts 334°
2026-05-08 10:50 53.28261 158.37108 5291 ft 251 kts 334°
2026-05-08 10:50 53.29887 158.35986 6129 ft 251 kts 334°
2026-05-08 10:50 53.31514 158.34883 6878 ft 256 kts 334°
2026-05-08 10:51 53.33185 158.33745 7627 ft 259 kts 334°
2026-05-08 10:51 53.34856 158.32571 8391 ft 262 kts 333°
2026-05-08 10:51 53.36431 158.31138 9274 ft 257 kts 325°
2026-05-08 10:51 53.37966 158.29525 9900 ft 263 kts 324°
2026-05-08 10:52 53.39535 158.27834 10368 ft 277 kts 323°
2026-05-08 10:52 53.41213 158.26004 10530 ft 299 kts 323°
2026-05-08 10:52 53.43024 158.24027 10670 ft 322 kts 324°
2026-05-08 10:52 53.44946 158.21941 11028 ft 334 kts 324°
2026-05-08 10:53 53.46913 158.19821 11632 ft 339 kts 324°
2026-05-08 10:53 53.48911 158.17680 12294 ft 342 kts 324°
2026-05-08 10:53 53.50923 158.15526 12952 ft 345 kts 324°
2026-05-08 10:53 53.52954 158.13346 13597 ft 348 kts 324°
2026-05-08 10:54 53.55004 158.11140 14149 ft 351 kts 324°
2026-05-08 10:54 53.57066 158.08912 14691 ft 354 kts 324°
2026-05-08 10:54 53.59157 158.06650 15216 ft 358 kts 324°
2026-05-08 10:54 53.61263 158.04367 15734 ft 361 kts 324°
2026-05-08 10:55 53.63359 158.02091 16235 ft 365 kts 324°
2026-05-08 10:55 53.65506 157.99757 16749 ft 369 kts 324°
2026-05-08 10:55 53.67698 157.97458 17248 ft 373 kts 326°
2026-05-08 10:55 53.69954 157.95251 17742 ft 377 kts 328°
2026-05-08 10:56 53.72261 157.93074 18201 ft 381 kts 328°
2026-05-08 10:56 53.74621 157.90869 18614 ft 384 kts 328°
2026-05-08 10:56 53.76967 157.88671 19029 ft 388 kts 328°
2026-05-08 10:56 53.79334 157.86435 19468 ft 391 kts 328°
2026-05-08 10:57 53.81707 157.84161 19874 ft 394 kts 328°
2026-05-08 10:57 53.84092 157.81845 20284 ft 397 kts 328°
2026-05-08 10:57 53.88904 157.77121 21081 ft 403 kts 328°
2026-05-08 10:58 53.91343 157.74719 21484 ft 405 kts 328°
2026-05-08 10:58 53.93751 157.72349 21867 ft 408 kts 328°
2026-05-08 10:58 53.96227 157.69913 22245 ft 411 kts 328°
2026-05-08 10:59 54.03532 157.62716 23331 ft 419 kts 328°
2026-05-08 10:59 54.06034 157.60246 23641 ft 421 kts 328°
2026-05-08 10:59 54.08574 157.57733 23942 ft 423 kts 328°
2026-05-08 11:00 54.11120 157.55213 24255 ft 425 kts 328°
2026-05-08 11:00 54.16176 157.50226 24862 ft 429 kts 329°
2026-05-08 11:00 54.18767 157.47681 25168 ft 431 kts 329°
2026-05-08 11:01 54.21378 157.45117 25468 ft 433 kts 329°
2026-05-08 11:01 54.23992 157.42540 25766 ft 435 kts 329°
2026-05-08 11:01 54.26602 157.39951 26070 ft 437 kts 328°
2026-05-08 11:01 54.29251 157.37313 26345 ft 438 kts 328°
2026-05-08 11:02 54.31895 157.34676 26624 ft 440 kts 328°
2026-05-08 11:02 54.37211 157.29370 27158 ft 444 kts 328°
2026-05-08 11:02 54.39894 157.26689 27413 ft 446 kts 328°
2026-05-08 11:03 54.42576 157.24011 27669 ft 447 kts 328°
2026-05-08 11:03 54.45239 157.21347 27923 ft 449 kts 328°
2026-05-08 11:03 54.47943 157.18633 28173 ft 451 kts 328°
2026-05-08 11:03 54.50657 157.15898 28415 ft 452 kts 328°
2026-05-08 11:04 54.53376 157.13158 28654 ft 454 kts 328°
2026-05-08 11:04 54.56109 157.10408 28997 ft 453 kts 328°
2026-05-08 11:04 54.58831 157.07665 29356 ft 452 kts 328°
2026-05-08 11:04 54.61549 157.04921 29709 ft 451 kts 328°
2026-05-08 11:05 54.64255 157.02185 30031 ft 451 kts 328°
2026-05-08 11:05 54.66959 156.99440 30290 ft 451 kts 328°
2026-05-08 11:05 54.69666 156.96687 30527 ft 451 kts 328°
2026-05-08 11:05 54.72336 156.93964 30755 ft 451 kts 328°
2026-05-08 11:06 54.75043 156.91204 30990 ft 452 kts 328°
2026-05-08 11:06 54.77752 156.88439 31207 ft 452 kts 328°
2026-05-08 11:06 54.80467 156.85666 31448 ft 453 kts 328°
2026-05-08 11:06 54.83179 156.82893 31690 ft 453 kts 328°
2026-05-08 11:07 54.85893 156.80112 31921 ft 453 kts 328°
2026-05-08 11:07 54.88608 156.77323 32153 ft 453 kts 328°
2026-05-08 11:07 54.91324 156.74534 32392 ft 454 kts 328°
2026-05-08 11:07 54.94044 156.71738 32629 ft 454 kts 328°
2026-05-08 11:08 54.96773 156.68929 32867 ft 454 kts 328°
2026-05-08 11:08 54.99491 156.66123 33095 ft 455 kts 328°
2026-05-08 11:08 55.02215 156.63300 33323 ft 455 kts 327°
2026-05-08 11:08 55.04929 156.60474 33558 ft 455 kts 327°
2026-05-08 11:09 55.07648 156.57637 33788 ft 455 kts 327°
2026-05-08 11:09 55.10335 156.54828 33983 ft 455 kts 327°
2026-05-08 11:09 55.13053 156.51990 34184 ft 455 kts 327°
2026-05-08 11:09 55.15775 156.49150 34367 ft 456 kts 327°
2026-05-08 11:10 55.18500 156.46303 34561 ft 456 kts 327°
2026-05-08 11:10 55.21222 156.43460 34736 ft 456 kts 327°
2026-05-08 11:10 55.23946 156.40611 34914 ft 456 kts 327°
2026-05-08 11:10 55.26676 156.37747 35087 ft 456 kts 327°
2026-05-08 11:11 55.29398 156.34883 35246 ft 456 kts 327°
2026-05-08 11:11 55.32125 156.32016 35419 ft 456 kts 327°
2026-05-08 11:11 55.34848 156.29145 35570 ft 456 kts 327°
2026-05-08 11:11 55.37568 156.26269 35733 ft 456 kts 327°
2026-05-08 11:12 55.40256 156.23424 35831 ft 457 kts 327°
2026-05-08 11:12 55.45707 156.17626 35846 ft 457 kts 327°
2026-05-08 11:13 55.51144 156.11813 35843 ft 457 kts 327°
2026-05-08 11:13 55.56587 156.05972 35841 ft 457 kts 327°
2026-05-08 11:14 55.62025 156.00125 35840 ft 457 kts 327°
2026-05-08 11:14 55.67461 155.94259 35840 ft 458 kts 327°
2026-05-08 11:15 55.72891 155.88366 35841 ft 458 kts 327°
2026-05-08 11:15 55.78293 155.82496 35841 ft 458 kts 327°
2026-05-08 11:16 55.83734 155.76570 35838 ft 458 kts 327°
2026-05-08 11:16 55.89160 155.70628 35837 ft 458 kts 327°
2026-05-08 11:17 55.94592 155.64662 35835 ft 458 kts 327°
2026-05-08 11:17 56.00027 155.58683 35835 ft 458 kts 327°
2026-05-08 11:18 56.05422 155.52724 35830 ft 458 kts 327°
2026-05-08 11:18 56.10848 155.46695 35832 ft 459 kts 327°
2026-05-08 11:19 56.16272 155.40653 35833 ft 459 kts 327°
2026-05-08 11:19 56.21698 155.34620 35832 ft 459 kts 327°
2026-05-08 11:20 56.27163 155.28651 35828 ft 459 kts 327°
2026-05-08 11:20 56.32633 155.22682 35831 ft 459 kts 327°
2026-05-08 11:21 56.38048 155.16715 35829 ft 459 kts 327°
2026-05-08 11:21 56.43500 155.10673 35831 ft 459 kts 327°
2026-05-08 11:22 56.48946 155.04620 35828 ft 460 kts 327°
2026-05-08 11:22 56.54387 154.98545 35811 ft 459 kts 326°
2026-05-08 11:23 56.59816 154.92471 35831 ft 458 kts 326°
2026-05-08 11:23 56.65241 154.86397 35837 ft 457 kts 326°
2026-05-08 11:24 56.70657 154.80302 35843 ft 457 kts 326°
2026-05-08 11:24 56.76053 154.74180 35841 ft 457 kts 326°
2026-05-08 11:25 56.81415 154.68089 35843 ft 457 kts 326°
2026-05-08 11:25 56.86819 154.61942 35838 ft 457 kts 326°
2026-05-08 11:26 56.92216 154.55777 35839 ft 457 kts 326°
2026-05-08 11:26 56.97605 154.49600 35838 ft 457 kts 326°
2026-05-08 11:27 57.02992 154.43409 35835 ft 457 kts 326°
2026-05-08 11:27 57.08378 154.37194 35840 ft 457 kts 326°
2026-05-08 11:28 57.13759 154.30955 35834 ft 457 kts 326°
2026-05-08 11:28 57.19079 154.24686 35838 ft 456 kts 321°
2026-05-08 11:29 57.23712 154.16763 35839 ft 454 kts 313°
2026-05-08 11:29 57.28165 154.08488 35840 ft 454 kts 313°
2026-05-08 11:30 57.32632 154.00211 35838 ft 454 kts 313°
2026-05-08 11:30 57.37089 153.91893 35842 ft 454 kts 313°
2026-05-08 11:31 57.41533 153.83565 35844 ft 454 kts 313°
2026-05-08 11:31 57.45976 153.75211 35841 ft 455 kts 313°
2026-05-08 11:32 57.50415 153.66814 35841 ft 455 kts 313°
2026-05-08 11:32 57.54829 153.58465 35842 ft 455 kts 313°
2026-05-08 11:33 57.59255 153.50042 35848 ft 455 kts 313°
2026-05-08 11:33 57.63677 153.41599 35851 ft 455 kts 313°
2026-05-08 11:34 57.68095 153.33128 35855 ft 455 kts 313°
2026-05-08 11:34 57.72511 153.24660 35852 ft 455 kts 313°
2026-05-08 11:35 57.76940 153.16174 35852 ft 455 kts 313°
2026-05-08 11:35 57.81364 153.07681 35851 ft 455 kts 313°
2026-05-08 11:36 57.85780 152.99145 35854 ft 455 kts 313°
2026-05-08 11:36 57.90180 152.90600 35858 ft 455 kts 313°
2026-05-08 11:37 57.94580 152.82041 35858 ft 455 kts 313°
2026-05-08 11:37 57.98979 152.73451 35858 ft 455 kts 313°
2026-05-08 11:38 58.03331 152.64884 35861 ft 455 kts 312°
2026-05-08 11:38 58.07690 152.56206 35861 ft 455 kts 312°
2026-05-08 11:39 58.12041 152.47514 35868 ft 455 kts 312°
2026-05-08 11:39 58.16396 152.38825 35865 ft 455 kts 312°
2026-05-08 11:40 58.20743 152.30103 35866 ft 455 kts 312°
2026-05-08 11:40 58.25088 152.21336 35871 ft 455 kts 312°
2026-05-08 11:41 58.29423 152.12559 35871 ft 455 kts 312°
2026-05-08 11:41 58.33765 152.03775 35869 ft 455 kts 312°
2026-05-08 11:42 58.38075 151.95038 35873 ft 455 kts 312°
2026-05-08 11:42 58.42411 151.86209 35874 ft 455 kts 312°
2026-05-08 11:43 58.46736 151.77355 35872 ft 455 kts 312°
2026-05-08 11:43 58.51046 151.68499 35876 ft 455 kts 312°
2026-05-08 11:44 58.55361 151.59609 35870 ft 455 kts 312°
2026-05-08 11:44 58.59659 151.50693 35872 ft 455 kts 311°
2026-05-08 11:45 58.63960 151.41761 35873 ft 455 kts 311°
2026-05-08 11:45 58.68226 151.32858 35870 ft 455 kts 311°
2026-05-08 11:46 58.71813 151.25339 35869 ft 455 kts 311°
2026-05-08 11:46 58.76068 151.16413 35869 ft 455 kts 311°
2026-05-08 11:47 58.80339 151.07395 35869 ft 455 kts 311°
2026-05-08 11:47 58.84606 150.98359 35869 ft 455 kts 311°
2026-05-08 11:48 58.88859 150.89290 35871 ft 455 kts 311°
2026-05-08 11:48 58.93105 150.80198 35871 ft 455 kts 311°
2026-05-08 11:49 58.97350 150.71091 35870 ft 455 kts 311°
2026-05-08 11:49 59.01593 150.61953 35875 ft 455 kts 311°
2026-05-08 11:50 59.05817 150.52800 35869 ft 455 kts 311°
2026-05-08 11:50 59.10016 150.43671 35866 ft 455 kts 311°
2026-05-08 11:51 59.14233 150.34478 35861 ft 455 kts 311°
2026-05-08 11:51 59.18448 150.25262 35849 ft 455 kts 311°
2026-05-08 11:52 59.22656 150.16004 35861 ft 455 kts 311°
2026-05-08 11:52 59.26858 150.06751 35846 ft 455 kts 311°
2026-05-08 11:53 59.31048 149.97475 35838 ft 455 kts 310°
2026-05-08 11:53 59.35229 149.88182 35843 ft 455 kts 310°
2026-05-08 11:54 59.39412 149.78858 35844 ft 455 kts 310°
2026-05-08 11:54 59.43579 149.69509 35842 ft 455 kts 310°
2026-05-08 11:55 59.47740 149.60142 35841 ft 455 kts 310°
2026-05-08 11:55 59.51898 149.50760 35843 ft 455 kts 310°
2026-05-08 11:56 59.56024 149.41411 35840 ft 455 kts 310°
2026-05-08 11:56 59.60159 149.31979 35841 ft 455 kts 310°
2026-05-08 11:57 59.64292 149.22512 35841 ft 455 kts 310°
2026-05-08 11:57 59.68060 149.12506 35839 ft 453 kts 297°
2026-05-08 11:58 59.70569 149.01139 35835 ft 453 kts 292°
2026-05-08 11:58 59.72984 148.89702 35838 ft 453 kts 292°
2026-05-08 11:59 59.76620 148.72319 35857 ft 453 kts 292°
2026-05-08 11:59 59.79003 148.60832 35846 ft 453 kts 292°
2026-05-08 12:00 59.81397 148.49220 35850 ft 453 kts 292°
2026-05-08 12:00 59.83780 148.37628 35855 ft 452 kts 292°
2026-05-08 12:01 59.86148 148.26034 35848 ft 452 kts 291°
2026-05-08 12:01 59.88505 148.14412 35847 ft 452 kts 291°
2026-05-08 12:02 59.90851 148.02772 35845 ft 452 kts 291°
2026-05-08 12:02 59.93168 147.91202 35845 ft 452 kts 291°
2026-05-08 12:03 59.95500 147.79539 35844 ft 452 kts 291°
2026-05-08 12:03 59.97820 147.67858 35839 ft 452 kts 291°
2026-05-08 12:04 60.00125 147.56172 35846 ft 452 kts 291°
2026-05-08 12:04 60.02416 147.44477 35842 ft 452 kts 291°
2026-05-08 12:05 60.04703 147.32758 35840 ft 452 kts 291°
2026-05-08 12:05 60.06960 147.21088 35837 ft 452 kts 290°
2026-05-08 12:06 60.09219 147.09348 35839 ft 452 kts 290°
2026-05-08 12:06 60.11472 146.97566 35835 ft 452 kts 290°
2026-05-08 12:07 60.13709 146.85782 35835 ft 452 kts 290°
2026-05-08 12:07 60.15936 146.73990 35833 ft 452 kts 290°
2026-05-08 12:08 60.18159 146.62180 35834 ft 452 kts 290°
2026-05-08 12:08 60.20368 146.50353 35832 ft 452 kts 290°
2026-05-08 12:09 60.22565 146.38505 35830 ft 452 kts 290°
2026-05-08 12:09 60.24756 146.26625 35830 ft 452 kts 290°
2026-05-08 12:10 60.29002 146.03409 35830 ft 452 kts 289°
2026-05-08 12:11 60.31148 145.91577 35824 ft 452 kts 289°
2026-05-08 12:11 60.33278 145.79641 35816 ft 452 kts 289°
2026-05-08 12:12 60.35377 145.67691 35815 ft 452 kts 289°
2026-05-08 12:12 60.37468 145.55694 35816 ft 452 kts 289°
2026-05-08 12:13 60.39555 145.43706 35812 ft 452 kts 289°
2026-05-08 12:13 60.41647 145.31685 35812 ft 452 kts 288°
2026-05-08 12:14 60.43716 145.19665 35811 ft 452 kts 288°
2026-05-08 12:14 60.45773 145.07644 35810 ft 452 kts 288°
2026-05-08 12:15 60.47807 144.95665 35804 ft 452 kts 288°
2026-05-08 12:15 60.49839 144.83594 35801 ft 452 kts 288°
2026-05-08 12:16 60.51866 144.71511 35797 ft 452 kts 288°
2026-05-08 12:16 60.53881 144.59412 35791 ft 452 kts 288°
2026-05-08 12:17 60.55888 144.47287 35790 ft 452 kts 288°
2026-05-08 12:17 60.57862 144.35238 35788 ft 452 kts 288°
2026-05-08 12:18 60.59833 144.23092 35784 ft 452 kts 288°
2026-05-08 12:18 60.61812 144.10907 35782 ft 452 kts 288°
2026-05-08 12:19 60.63793 143.98741 35779 ft 452 kts 288°
2026-05-08 12:19 60.65756 143.86553 35778 ft 452 kts 287°
2026-05-08 12:20 60.67688 143.74411 35778 ft 452 kts 287°
2026-05-08 12:20 60.69625 143.62182 35777 ft 452 kts 287°
2026-05-08 12:21 60.71553 143.49958 35776 ft 452 kts 287°
2026-05-08 12:21 60.73471 143.37703 35777 ft 452 kts 287°
2026-05-08 12:22 60.75373 143.25448 35779 ft 452 kts 287°
2026-05-08 12:22 60.77267 143.13171 35777 ft 452 kts 287°
2026-05-08 12:23 60.79144 143.00883 35772 ft 452 kts 287°
2026-05-08 12:23 60.80998 142.88661 35771 ft 452 kts 287°
2026-05-08 12:24 60.82858 142.76346 35770 ft 452 kts 287°
2026-05-08 12:24 60.84710 142.64006 35763 ft 452 kts 286°
2026-05-08 12:25 60.86544 142.51662 35762 ft 452 kts 286°
2026-05-08 12:25 60.88347 142.39370 35758 ft 453 kts 286°
2026-05-08 12:26 60.90154 142.26982 35756 ft 453 kts 286°
2026-05-08 12:26 60.91956 142.14588 35750 ft 453 kts 286°
2026-05-08 12:27 60.93744 142.02168 35743 ft 453 kts 286°
2026-05-08 12:27 60.95527 141.89725 35733 ft 453 kts 286°
2026-05-08 12:28 60.97300 141.77274 35734 ft 453 kts 286°
2026-05-08 12:28 60.99064 141.64814 35724 ft 453 kts 286°
2026-05-08 12:29 61.00813 141.52329 35718 ft 453 kts 286°
2026-05-08 12:29 61.02544 141.39819 35713 ft 454 kts 285°
2026-05-08 12:30 61.04255 141.27362 35705 ft 454 kts 285°
2026-05-08 12:30 61.05968 141.14821 35706 ft 454 kts 285°
2026-05-08 12:31 61.07668 141.02216 35700 ft 455 kts 285°
2026-05-08 12:31 61.09361 140.89626 35703 ft 455 kts 285°
2026-05-08 12:32 61.11050 140.77024 35703 ft 455 kts 285°
2026-05-08 12:32 61.12723 140.64396 35712 ft 455 kts 285°
2026-05-08 12:33 61.14384 140.51744 35715 ft 455 kts 285°
2026-05-08 12:33 61.16014 140.39154 35717 ft 455 kts 285°
2026-05-08 12:34 61.17651 140.26482 35721 ft 455 kts 285°
2026-05-08 12:34 61.19284 140.13811 35721 ft 454 kts 285°
2026-05-08 12:35 61.20899 140.01138 35727 ft 454 kts 285°
2026-05-08 12:35 61.22484 139.88537 35724 ft 453 kts 285°
2026-05-08 12:36 61.24068 139.75862 35726 ft 453 kts 285°
2026-05-08 12:36 61.25641 139.63190 35727 ft 453 kts 285°
2026-05-08 12:37 61.27200 139.50486 35726 ft 453 kts 285°
2026-05-08 12:37 61.28749 139.37794 35726 ft 453 kts 285°
2026-05-08 12:38 61.30287 139.25069 35727 ft 453 kts 285°
2026-05-08 12:38 61.31808 139.12337 35729 ft 453 kts 284°
2026-05-08 12:39 61.33325 138.99595 35726 ft 453 kts 285°
2026-05-08 12:39 61.34837 138.86832 35730 ft 454 kts 284°
2026-05-08 12:40 61.36321 138.74038 35730 ft 454 kts 284°
2026-05-08 12:40 61.37788 138.61348 35731 ft 453 kts 284°
2026-05-08 12:41 61.39251 138.48557 35729 ft 453 kts 284°
2026-05-08 12:41 61.40702 138.35753 35730 ft 453 kts 284°
2026-05-08 12:42 61.42145 138.22940 35731 ft 453 kts 284°
2026-05-08 12:42 61.43571 138.10127 35731 ft 453 kts 284°
2026-05-08 12:43 61.44987 137.97273 35732 ft 453 kts 284°
2026-05-08 12:43 61.46315 137.85118 35728 ft 453 kts 284°
2026-05-08 12:44 61.47716 137.72267 35728 ft 453 kts 284°
2026-05-08 12:44 61.49101 137.59398 35728 ft 453 kts 284°
2026-05-08 12:45 61.50466 137.46520 35729 ft 453 kts 284°
2026-05-08 12:45 61.51803 137.33711 35731 ft 453 kts 284°
2026-05-08 12:46 61.53143 137.20810 35728 ft 452 kts 284°
2026-05-08 12:46 61.54477 137.07915 35729 ft 452 kts 284°
2026-05-08 12:47 61.55803 136.95002 35728 ft 452 kts 284°
2026-05-08 12:47 61.57106 136.82090 35727 ft 452 kts 284°
2026-05-08 12:48 61.58392 136.69193 35725 ft 452 kts 284°
2026-05-08 12:48 61.59659 136.56357 35721 ft 452 kts 284°
2026-05-08 12:49 61.60928 136.43438 35715 ft 451 kts 284°
2026-05-08 12:49 61.62186 136.30517 35725 ft 451 kts 284°
2026-05-08 12:50 61.63427 136.17574 35718 ft 451 kts 284°
2026-05-08 12:50 61.64655 136.04614 35716 ft 451 kts 284°
2026-05-08 12:51 61.66476 135.85189 35712 ft 451 kts 284°
2026-05-08 12:52 61.67659 135.72309 35718 ft 450 kts 284°
2026-05-08 12:52 61.69427 135.52883 35710 ft 450 kts 284°
2026-05-08 12:53 61.70590 135.39925 35709 ft 450 kts 284°
2026-05-08 12:53 61.71744 135.26979 35710 ft 449 kts 284°
2026-05-08 12:54 61.72879 135.14008 35712 ft 449 kts 284°
2026-05-08 12:54 61.74023 135.01044 35713 ft 449 kts 284°
2026-05-08 12:55 61.75164 134.88186 35713 ft 448 kts 284°
2026-05-08 12:55 61.76308 134.75247 35710 ft 448 kts 284°
2026-05-08 12:56 61.77420 134.62313 35714 ft 448 kts 284°
2026-05-08 12:56 61.78518 134.49365 35714 ft 447 kts 284°
2026-05-08 12:57 61.79418 134.38595 35713 ft 447 kts 284°
2026-05-08 12:57 61.80673 134.23530 35713 ft 446 kts 284°
2026-05-08 12:58 61.81736 134.10598 35713 ft 446 kts 283°
2026-05-08 12:58 61.82781 133.97658 35713 ft 446 kts 283°
2026-05-08 12:59 61.83814 133.84723 35714 ft 446 kts 283°
2026-05-08 12:59 61.84833 133.71786 35716 ft 445 kts 283°
2026-05-08 13:00 61.85670 133.61040 35709 ft 445 kts 283°
2026-05-08 13:00 61.86667 133.47725 35714 ft 444 kts 283°
2026-05-08 13:01 61.87620 133.34791 35712 ft 444 kts 283°
2026-05-08 13:01 61.88549 133.21858 35716 ft 444 kts 283°
2026-05-08 13:02 61.89469 133.08916 35715 ft 443 kts 283°
2026-05-08 13:02 61.90382 132.95995 35716 ft 443 kts 283°
2026-05-08 13:03 61.91285 132.83069 35717 ft 442 kts 283°
2026-05-08 13:03 61.92164 132.70146 35717 ft 442 kts 283°
2026-05-08 13:04 61.93022 132.57246 35704 ft 441 kts 283°
2026-05-08 13:04 61.93898 132.44475 35716 ft 439 kts 284°
2026-05-08 13:05 61.94780 132.31648 35722 ft 438 kts 283°
2026-05-08 13:05 61.95633 132.18808 35713 ft 438 kts 283°
2026-05-08 13:06 61.96469 132.05981 35702 ft 438 kts 283°
2026-05-08 13:06 61.97300 131.93152 35700 ft 438 kts 283°
2026-05-08 13:07 61.98111 131.80420 35701 ft 438 kts 283°
2026-05-08 13:07 61.98910 131.67581 35704 ft 437 kts 283°
2026-05-08 13:08 61.99700 131.54723 35703 ft 437 kts 283°
2026-05-08 13:08 62.00479 131.41905 35705 ft 436 kts 283°
2026-05-08 13:09 62.01243 131.29098 35704 ft 436 kts 283°
2026-05-08 13:09 62.01989 131.16387 35701 ft 435 kts 283°
2026-05-08 13:10 62.02727 131.03610 35703 ft 434 kts 283°
2026-05-08 13:10 62.03459 130.90825 35700 ft 433 kts 282°
2026-05-08 13:11 62.04168 130.78068 35703 ft 433 kts 282°
2026-05-08 13:11 62.04860 130.65344 35695 ft 432 kts 282°
2026-05-08 13:12 62.05540 130.52635 35692 ft 431 kts 282°
2026-05-08 13:12 62.06212 130.39949 35697 ft 430 kts 282°
2026-05-08 13:13 62.06858 130.27274 35690 ft 429 kts 281°
2026-05-08 13:13 62.07491 130.14619 35694 ft 429 kts 281°
2026-05-08 13:14 62.08121 130.01951 35693 ft 428 kts 281°
2026-05-08 13:14 62.08736 129.89396 35696 ft 428 kts 281°
2026-05-08 13:15 62.09358 129.76752 35698 ft 427 kts 282°
2026-05-08 13:15 62.10308 129.64292 35695 ft 424 kts 286°
2026-05-08 13:16 62.11461 129.51966 35695 ft 423 kts 286°
2026-05-08 13:16 62.12574 129.39585 35690 ft 424 kts 285°
2026-05-08 13:17 62.13607 129.27164 35682 ft 424 kts 284°
2026-05-08 13:17 62.14603 129.14823 35675 ft 424 kts 284°
2026-05-08 13:18 62.15599 129.02386 35664 ft 424 kts 284°
2026-05-08 13:18 62.16593 128.89948 35656 ft 424 kts 284°
2026-05-08 13:19 62.17302 128.77362 35655 ft 428 kts 277°
2026-05-08 13:19 62.17598 128.64636 35648 ft 428 kts 277°
2026-05-08 13:20 62.17885 128.51977 35642 ft 428 kts 277°
2026-05-08 13:20 62.18167 128.39241 35639 ft 428 kts 277°
2026-05-08 13:21 62.18437 128.26486 35635 ft 428 kts 277°
2026-05-08 13:21 62.18695 128.13742 35636 ft 428 kts 277°
2026-05-08 13:22 62.18940 128.01067 35632 ft 428 kts 276°
2026-05-08 13:22 62.19167 127.88304 35628 ft 428 kts 276°
2026-05-08 13:23 62.19386 127.75541 35622 ft 429 kts 276°
2026-05-08 13:23 62.19596 127.62778 35624 ft 429 kts 276°
2026-05-08 13:24 62.19788 127.49987 35619 ft 429 kts 276°
2026-05-08 13:24 62.19968 127.37275 35620 ft 429 kts 276°
2026-05-08 13:25 62.20148 127.24471 35613 ft 430 kts 275°
2026-05-08 13:25 62.20312 127.11656 35620 ft 430 kts 275°
2026-05-08 13:26 62.20461 126.98825 35617 ft 431 kts 275°
2026-05-08 13:26 62.20614 126.85991 35615 ft 430 kts 276°
2026-05-08 13:27 62.20970 126.73295 35615 ft 429 kts 277°
2026-05-08 13:27 62.21415 126.60558 35615 ft 429 kts 277°